Powrót do katalogu

SL-3 DEB

AktywnyPO
NORAD 9663·DEBRIS·🇷🇺 Russia

Wystrzelony Jan 6, 1977 z Plesetsk Cosmodrome

Loading…

Następne Przeloty (najbliższe 24 godziny)

TLE

ŚwieżeSource: Space-Track

Epoka: Sep 14, 2026, 14:25 UTC

1 09663U 77002C   26257.60102820  .00000123  00000-0  71284-4 0  9993
2 09663  81.2682  21.7755 0008113 112.3725 247.8302 14.02806482542174

Śledź SL-3 DEB w czasie rzeczywistym z AllMySat

Download on the App Store